Regional Weather Roundup
Issued by NWS

Home | Current Version | Previous Version | Graphics & Text | Print | Product List | Glossary On
Versions: 1 2 3 4 5 6 7 8 9 10 11 12 13 14 15 16 17 18 19 20 21 22 23 24 25 26 27 28 29 30 31 32 33 34 35 36 37 38 39 40 41 42 43 44 45 46 47 48 49 50
000
ASUS44 KMEG 031910
RWRTN
TENNESSEE HOURLY STATE WEATHER ROUNDUP
NATIONAL WEATHER SERVICE MEMPHIS TN
200 PM CDT FRI JUL 03 2015

TNZ002-004-019-021-049-052-054-088>092-032000-
WEST TENNESSEE

CITY           SKY/WX    TMP DP  RH WIND       PRES   REMARKS
MEMPHIS INTL   LGT RAIN  74  72  93 SW8       29.97S
NWS MEMPHIS      N/A     72 N/A N/A MISG        N/A
JACKSON        RAIN      72  69  90 SW15      29.95F
DYERSBURG        N/A    N/A N/A N/A MISG        N/A  THUNDER
PARIS          PTSUNNY   77  70  78 SW7       29.92F
LEXINGTON      PTSUNNY   72  70  94 SW13      29.93F
$$

TNZ008-025-027-028-033-062-065-066-032000-
NORTH MIDDLE TENNESSEE

CITY           SKY/WX    TMP DP  RH WIND       PRES   REMARKS
NASHVILLE      PTSUNNY   83  73  72 VRB7      29.91F
CLARKSVILLE    MOSUNNY   80  70  71 SW9       29.89F
SMYRNA         PTSUNNY   84  72  67 W13       29.92S
COOKEVILLE     CLOUDY    79  73  83 SW10      29.93F
CROSSVILLE     CLOUDY    74  67  78 W10G20    29.98S
$$

TNZ061-075-076-078-094-096-097-032000-
SOUTH MIDDLE TENNESSEE

CITY           SKY/WX    TMP DP  RH WIND       PRES   REMARKS
FAYETTEVILLE   PTSUNNY   72  66  83 W10       30.01R
TULLAHOMA        N/A     77  70  78 SW14      29.99S
WINCHESTER     PTSUNNY   75  70  83 SW14      29.99F
MCMINNVILLE    CLOUDY    73  73 100 S7        29.96F
COLUMBIA       PTSUNNY   77  70  78 SW17      29.95F
SHELBYVILLE    PTSUNNY   79  73  83 SW16        N/A
$$

TNZ017-018-042-046-047-032000-
NORTHEAST TENNESSEE

CITY           SKY/WX    TMP DP  RH WIND       PRES   REMARKS
TRI CITIES     HVY RAIN  71  70  96 W6        29.95S FOG
ELIZABETHTON   RAIN      70  66  88 W9        29.96R FOG
$$

TNZ012-013-036-069-073-074-032000-
CENTRAL EAST TENNESSEE

CITY           SKY/WX    TMP DP  RH WIND       PRES   REMARKS
KNOXVILLE      CLOUDY    76  68  76 SW17      29.93R
OAK RIDGE      CLOUDY    79  69  71 VRB7      29.93S
GATLINBURG     PTCLDY    79  66  65 SW14      29.92S
MORRISTOWN     PTCLDY    72  72 100 SW8       29.94F
$$

TNZ083-085-099-032000-
SOUTHEAST TENNESSEE

CITY           SKY/WX    TMP DP  RH WIND       PRES   REMARKS
CHATTANOOGA    CLOUDY    77  70  79 SW12      29.98R
$$

SKY/WX REPORTED AS FAIR MEANS FEW OR NO CLOUDS BELOW
12 THOUSAND FEET.



USA.gov is the U.S. government's official web portal to all federal, state and local government web resources and services.